FJI358 NGTA-PKWA

Flight info

Callsign FJI358
Flight time 1h 30m
Altitude 36000
Route FASRU
Aircraft A320/M-SDE3FGHIRWY/LB1

Departure

Time 2026-05-07 23:30
Airport Bonriki International Airport (NGTA)

Arrival

Time 2026-05-08 01:00
Airport Bucholz Army Air Field (PKWA)
Time Latitude Longitude Altitude Speed Heading
2026-05-07 23:30 1.42983 173.30324 2757 ft 265 kts
2026-05-07 23:30 1.44817 173.30564 2998 ft 266 kts 10°
2026-05-07 23:30 1.46670 173.30674 3280 ft 272 kts 354°
2026-05-07 23:30 1.48473 173.30040 4174 ft 279 kts 329°
2026-05-07 23:31 1.50043 173.28880 5151 ft 282 kts 323°
2026-05-07 23:31 1.51592 173.27663 6045 ft 285 kts 323°
2026-05-07 23:31 1.53158 173.26416 6851 ft 290 kts 322°
2026-05-07 23:31 1.54741 173.25146 7661 ft 294 kts 322°
2026-05-07 23:32 1.56347 173.23856 8455 ft 298 kts 322°
2026-05-07 23:32 1.57976 173.22552 9252 ft 302 kts 322°
2026-05-07 23:32 1.59633 173.21228 10024 ft 306 kts 322°
2026-05-07 23:32 1.61344 173.19863 10387 ft 326 kts 322°
2026-05-07 23:33 1.63178 173.18398 10666 ft 346 kts 322°
2026-05-07 23:33 1.65086 173.16878 11250 ft 354 kts 322°
2026-05-07 23:33 1.67018 173.15339 11944 ft 358 kts 322°
2026-05-07 23:33 1.68974 173.13776 12640 ft 361 kts 322°
2026-05-07 23:34 1.70948 173.12196 13326 ft 365 kts 322°
2026-05-07 23:34 1.72936 173.10604 13960 ft 369 kts 322°
2026-05-07 23:34 1.74923 173.09013 14538 ft 372 kts 322°
2026-05-07 23:34 1.76953 173.07393 15124 ft 375 kts 322°
2026-05-07 23:35 1.78996 173.05763 15709 ft 378 kts 322°
2026-05-07 23:35 1.81065 173.04115 16293 ft 381 kts 322°
2026-05-07 23:35 1.83143 173.02453 16871 ft 385 kts 322°
2026-05-07 23:35 1.85242 173.00774 17455 ft 387 kts 322°
2026-05-07 23:36 1.87355 172.99087 18022 ft 391 kts 322°
2026-05-07 23:36 1.89487 172.97385 18530 ft 393 kts 322°
2026-05-07 23:36 1.91635 172.95672 19003 ft 397 kts 322°
2026-05-07 23:36 1.93797 172.93943 19479 ft 399 kts 322°
2026-05-07 23:37 1.95972 172.92202 19930 ft 403 kts 322°
2026-05-07 23:37 1.98168 172.90447 20399 ft 405 kts 322°
2026-05-07 23:37 2.00380 172.88680 20844 ft 409 kts 322°
2026-05-07 23:37 2.02608 172.86899 21279 ft 412 kts 322°
2026-05-07 23:38 2.04853 172.85106 21714 ft 414 kts 322°
2026-05-07 23:38 2.07112 172.83299 22162 ft 417 kts 322°
2026-05-07 23:38 2.09385 172.81480 22586 ft 420 kts 322°
2026-05-07 23:38 2.11671 172.79652 23029 ft 422 kts 322°
2026-05-07 23:39 2.13976 172.77810 23453 ft 425 kts 322°
2026-05-07 23:39 2.16294 172.75958 23787 ft 428 kts 322°
2026-05-07 23:39 2.18624 172.74096 24125 ft 431 kts 322°
2026-05-07 23:39 2.20970 172.72224 24479 ft 433 kts 322°
2026-05-07 23:40 2.23332 172.70334 24816 ft 435 kts 322°
2026-05-07 23:40 2.25696 172.68440 25148 ft 438 kts 322°
2026-05-07 23:40 2.28081 172.66529 25524 ft 439 kts 322°
2026-05-07 23:40 2.30473 172.64617 25866 ft 442 kts 322°
2026-05-07 23:41 2.32881 172.62696 26202 ft 443 kts 322°
2026-05-07 23:41 2.35294 172.60771 26568 ft 444 kts 321°
2026-05-07 23:41 2.37710 172.58840 26927 ft 446 kts 321°
2026-05-07 23:41 2.40144 172.56896 27199 ft 450 kts 322°
2026-05-07 23:42 2.42596 172.54938 27522 ft 451 kts 321°
2026-05-07 23:42 2.45051 172.52976 27834 ft 454 kts 321°
2026-05-07 23:42 2.47495 172.51020 28085 ft 457 kts 321°
2026-05-07 23:42 2.50013 172.49004 28434 ft 458 kts 321°
2026-05-07 23:43 2.52476 172.47032 28782 ft 460 kts 321°
2026-05-07 23:43 2.55010 172.45007 29099 ft 462 kts 321°
2026-05-07 23:43 2.57495 172.43022 29404 ft 464 kts 321°
2026-05-07 23:43 2.60050 172.40980 29729 ft 465 kts 321°
2026-05-07 23:44 2.62586 172.38951 29988 ft 468 kts 321°
2026-05-07 23:44 2.65098 172.36942 30185 ft 471 kts 321°
2026-05-07 23:44 2.67663 172.34888 30413 ft 473 kts 321°
2026-05-07 23:44 2.70232 172.32826 30648 ft 475 kts 321°
2026-05-07 23:45 2.72819 172.30754 30842 ft 478 kts 321°
2026-05-07 23:45 2.75422 172.28675 31051 ft 480 kts 321°
2026-05-07 23:45 2.78032 172.26593 31338 ft 480 kts 321°
2026-05-07 23:45 2.80639 172.24510 31640 ft 480 kts 321°
2026-05-07 23:46 2.83241 172.22427 31976 ft 479 kts 321°
2026-05-07 23:46 2.85829 172.20354 32390 ft 475 kts 321°
2026-05-07 23:46 2.88410 172.18289 32750 ft 474 kts 321°
2026-05-07 23:46 2.90983 172.16231 33067 ft 474 kts 321°
2026-05-07 23:47 2.93555 172.14170 33363 ft 474 kts 321°
2026-05-07 23:47 2.96124 172.12113 33743 ft 472 kts 321°
2026-05-07 23:47 2.98688 172.10059 34042 ft 472 kts 321°
2026-05-07 23:47 3.01246 172.08010 34331 ft 471 kts 321°
2026-05-07 23:48 3.03804 172.05960 34576 ft 471 kts 322°
2026-05-07 23:48 3.06351 172.03918 34945 ft 467 kts 322°
2026-05-07 23:48 3.08886 172.01888 35192 ft 468 kts 321°
2026-05-07 23:48 3.11432 171.99851 35408 ft 468 kts 321°
2026-05-07 23:49 3.13971 171.97821 35694 ft 467 kts 321°
2026-05-07 23:49 3.16507 171.95792 35865 ft 467 kts 322°
2026-05-07 23:49 3.21563 171.91741 35903 ft 463 kts 322°
2026-05-07 23:50 3.26588 171.87713 35904 ft 464 kts 322°
2026-05-07 23:50 3.31632 171.83680 35901 ft 463 kts 322°
2026-05-07 23:51 3.36657 171.79658 35901 ft 463 kts 322°
2026-05-07 23:51 3.41662 171.75642 35894 ft 460 kts 321°
2026-05-07 23:52 3.46648 171.71638 35902 ft 459 kts 322°
2026-05-07 23:52 3.51641 171.67636 35905 ft 459 kts 322°
2026-05-07 23:53 3.56638 171.63640 35893 ft 460 kts 322°
2026-05-07 23:53 3.61609 171.59652 35897 ft 461 kts 322°
2026-05-07 23:54 3.66643 171.55609 35899 ft 461 kts 322°
2026-05-07 23:54 3.71618 171.51622 35911 ft 461 kts 322°
2026-05-07 23:55 3.76658 171.47587 35901 ft 461 kts 322°
2026-05-07 23:55 3.81627 171.43600 35911 ft 461 kts 322°
2026-05-07 23:56 3.86618 171.39583 35919 ft 460 kts 322°
2026-05-07 23:56 3.91608 171.35578 35923 ft 460 kts 322°
2026-05-07 23:57 3.96600 171.31573 35919 ft 459 kts 322°
2026-05-07 23:57 4.01578 171.27578 35923 ft 458 kts 322°
2026-05-07 23:58 4.06558 171.23576 35900 ft 459 kts 322°
2026-05-07 23:58 4.11544 171.19561 35896 ft 460 kts 322°
2026-05-07 23:59 4.16546 171.15551 35885 ft 461 kts 322°
2026-05-07 23:59 4.21556 171.11537 35891 ft 461 kts 322°
2026-05-08 00:00 4.26562 171.07510 35894 ft 462 kts 322°
2026-05-08 00:00 4.31569 171.03478 35901 ft 461 kts 322°
2026-05-08 00:01 4.36575 170.99455 35910 ft 461 kts 322°
2026-05-08 00:01 4.41578 170.95425 35906 ft 461 kts 321°
2026-05-08 00:02 4.46588 170.91401 35900 ft 461 kts 322°
2026-05-08 00:02 4.50746 170.88058 35902 ft 461 kts 322°
2026-05-08 00:03 4.55747 170.84046 35914 ft 460 kts 322°
2026-05-08 00:03 4.60729 170.80040 35913 ft 459 kts 322°
2026-05-08 00:04 4.65705 170.76033 35918 ft 458 kts 322°
2026-05-08 00:04 4.70677 170.72035 35915 ft 458 kts 322°
2026-05-08 00:05 4.75641 170.68036 35907 ft 458 kts 322°
2026-05-08 00:05 4.80602 170.64039 35902 ft 458 kts 322°
2026-05-08 00:06 4.85576 170.60035 35895 ft 458 kts 322°
2026-05-08 00:06 4.90547 170.56031 35896 ft 458 kts 321°
2026-05-08 00:07 4.95491 170.52053 35892 ft 459 kts 321°
2026-05-08 00:07 5.00474 170.48030 35896 ft 460 kts 321°
2026-05-08 00:08 5.05467 170.44013 35902 ft 460 kts 322°
2026-05-08 00:08 5.10498 170.39964 35888 ft 461 kts 321°
2026-05-08 00:09 5.15461 170.35958 35894 ft 461 kts 321°
2026-05-08 00:09 5.20461 170.31918 35883 ft 462 kts 321°
2026-05-08 00:10 5.25477 170.27875 35887 ft 463 kts 321°
2026-05-08 00:10 5.30499 170.23825 35898 ft 463 kts 322°
2026-05-08 00:11 5.35518 170.19769 35896 ft 463 kts 321°
2026-05-08 00:11 5.40542 170.15719 35903 ft 463 kts 322°
2026-05-08 00:12 5.45561 170.11677 35918 ft 462 kts 322°
2026-05-08 00:12 5.50573 170.07630 35909 ft 462 kts 322°
2026-05-08 00:13 5.55573 170.03579 35909 ft 462 kts 321°
2026-05-08 00:13 5.60583 169.99536 35900 ft 462 kts 322°
2026-05-08 00:14 5.65600 169.95492 35891 ft 463 kts 321°
2026-05-08 00:14 5.68118 169.93459 35642 ft 464 kts 321°
2026-05-08 00:14 5.70621 169.91436 35290 ft 462 kts 321°
2026-05-08 00:15 5.73132 169.89404 34942 ft 464 kts 321°
2026-05-08 00:15 5.75615 169.87395 34603 ft 466 kts 321°
2026-05-08 00:15 5.78142 169.85351 34267 ft 470 kts 321°
2026-05-08 00:15 5.80702 169.83280 33933 ft 475 kts 321°
2026-05-08 00:16 5.83281 169.81191 33557 ft 478 kts 321°
2026-05-08 00:16 5.85877 169.79088 33173 ft 479 kts 321°
2026-05-08 00:16 5.88474 169.76986 32806 ft 480 kts 321°
2026-05-08 00:16 5.91082 169.74877 32429 ft 482 kts 321°
2026-05-08 00:17 5.93696 169.72766 32070 ft 483 kts 321°
2026-05-08 00:17 5.96317 169.70649 31715 ft 483 kts 321°
2026-05-08 00:17 5.98933 169.68531 31364 ft 482 kts 321°
2026-05-08 00:17 6.01555 169.66412 31011 ft 485 kts 320°
2026-05-08 00:18 6.04184 169.64289 30671 ft 486 kts 320°
2026-05-08 00:18 6.06815 169.62156 30325 ft 487 kts 320°
2026-05-08 00:18 6.09455 169.60014 29987 ft 489 kts 320°
2026-05-08 00:18 6.12104 169.57865 29597 ft 490 kts 320°
2026-05-08 00:19 6.14758 169.55715 29204 ft 490 kts 320°
2026-05-08 00:19 6.17405 169.53568 28816 ft 489 kts 321°
2026-05-08 00:19 6.20055 169.51420 28433 ft 490 kts 320°
2026-05-08 00:19 6.22712 169.49269 28054 ft 492 kts 320°
2026-05-08 00:20 6.25381 169.47108 27684 ft 492 kts 321°
2026-05-08 00:20 6.28049 169.44949 27312 ft 493 kts 321°
2026-05-08 00:20 6.30686 169.42816 26961 ft 492 kts 321°
2026-05-08 00:20 6.33388 169.40627 26604 ft 493 kts 321°
2026-05-08 00:21 6.36019 169.38494 26330 ft 492 kts 321°
2026-05-08 00:21 6.38672 169.36338 26107 ft 490 kts 320°
2026-05-08 00:21 6.41324 169.34183 25875 ft 490 kts 320°
2026-05-08 00:21 6.44006 169.32008 25642 ft 488 kts 320°
2026-05-08 00:22 6.46617 169.29892 25416 ft 488 kts 321°
2026-05-08 00:22 6.49256 169.27753 25190 ft 486 kts 321°
2026-05-08 00:22 6.51874 169.25630 24966 ft 483 kts 320°
2026-05-08 00:22 6.54487 169.23513 24744 ft 481 kts 321°
2026-05-08 00:23 6.57100 169.21394 24524 ft 482 kts 320°
2026-05-08 00:23 6.59706 169.19277 24305 ft 481 kts 320°
2026-05-08 00:23 6.62305 169.17162 24088 ft 480 kts 320°
2026-05-08 00:23 6.64893 169.15054 23890 ft 478 kts 320°
2026-05-08 00:24 6.67471 169.12953 23883 ft 476 kts 321°
2026-05-08 00:24 6.70053 169.10857 23900 ft 478 kts 321°
2026-05-08 00:24 6.72642 169.08760 23901 ft 476 kts 320°
2026-05-08 00:24 6.75215 169.06674 23902 ft 475 kts 320°
2026-05-08 00:25 6.77784 169.04586 23895 ft 475 kts 320°
2026-05-08 00:25 6.80358 169.02492 23898 ft 476 kts 320°
2026-05-08 00:25 6.82934 169.00397 23899 ft 477 kts 320°
2026-05-08 00:25 6.85505 168.98306 23898 ft 475 kts 320°
2026-05-08 00:26 6.88074 168.96218 23905 ft 475 kts 320°
2026-05-08 00:26 6.90643 168.94131 23903 ft 475 kts 320°
2026-05-08 00:26 6.93210 168.92045 23904 ft 474 kts 320°
2026-05-08 00:26 6.95772 168.89957 23905 ft 474 kts 320°
2026-05-08 00:27 6.98335 168.87869 23899 ft 473 kts 320°
2026-05-08 00:27 7.00898 168.85787 23901 ft 474 kts 320°
2026-05-08 00:27 7.03467 168.83703 23904 ft 476 kts 320°
2026-05-08 00:27 7.06044 168.81609 23903 ft 476 kts 320°
2026-05-08 00:28 7.08619 168.79512 23805 ft 476 kts 320°
2026-05-08 00:28 7.11186 168.77420 23592 ft 473 kts 320°
2026-05-08 00:28 7.13738 168.75342 23359 ft 470 kts 320°
2026-05-08 00:28 7.16280 168.73270 23101 ft 470 kts 320°
2026-05-08 00:29 7.18818 168.71204 22839 ft 467 kts 320°
2026-05-08 00:29 7.21343 168.69147 22589 ft 467 kts 320°
2026-05-08 00:29 7.23865 168.67091 22334 ft 466 kts 320°
2026-05-08 00:29 7.26383 168.65039 22084 ft 465 kts 320°
2026-05-08 00:30 7.28892 168.62998 21835 ft 463 kts 320°
2026-05-08 00:30 7.31396 168.60959 21597 ft 461 kts 321°
2026-05-08 00:30 7.33887 168.58930 21361 ft 458 kts 321°
2026-05-08 00:30 7.36361 168.56915 21111 ft 457 kts 321°
2026-05-08 00:31 7.38794 168.54933 20877 ft 454 kts 321°
2026-05-08 00:31 7.41274 168.52908 20636 ft 453 kts 321°
2026-05-08 00:31 7.43715 168.50911 20398 ft 451 kts 321°
2026-05-08 00:31 7.46121 168.48945 20166 ft 451 kts 321°
2026-05-08 00:32 7.48547 168.46968 19978 ft 448 kts 321°
2026-05-08 00:32 7.50968 168.44996 19975 ft 447 kts 321°
2026-05-08 00:32 7.53386 168.43026 19983 ft 446 kts 321°
2026-05-08 00:32 7.55794 168.41060 19983 ft 446 kts 321°
2026-05-08 00:33 7.58202 168.39092 19958 ft 446 kts 321°
2026-05-08 00:33 7.60613 168.37121 19730 ft 445 kts 321°
2026-05-08 00:33 7.63012 168.35156 19501 ft 444 kts 321°
2026-05-08 00:33 7.65406 168.33195 19276 ft 443 kts 321°
2026-05-08 00:34 7.67792 168.31244 19051 ft 440 kts 321°
2026-05-08 00:34 7.70167 168.29306 18827 ft 439 kts 321°
2026-05-08 00:34 7.72543 168.27367 18605 ft 439 kts 321°
2026-05-08 00:34 7.74919 168.25432 18385 ft 438 kts 321°
2026-05-08 00:35 7.77282 168.23502 18163 ft 436 kts 321°
2026-05-08 00:35 7.79630 168.21578 17907 ft 433 kts 321°
2026-05-08 00:35 7.81963 168.19668 17655 ft 431 kts 321°
2026-05-08 00:35 7.84291 168.17764 17402 ft 430 kts 321°
2026-05-08 00:36 7.86617 168.15863 17150 ft 430 kts 321°
2026-05-08 00:36 7.88937 168.13964 16902 ft 428 kts 321°
2026-05-08 00:36 7.91246 168.12076 16662 ft 427 kts 321°
2026-05-08 00:36 7.93549 168.10196 16414 ft 425 kts 321°
2026-05-08 00:37 7.95844 168.08318 16173 ft 424 kts 321°
2026-05-08 00:37 7.98132 168.06442 15938 ft 424 kts 321°
2026-05-08 00:37 8.00417 168.04572 15697 ft 422 kts 321°
2026-05-08 00:38 8.04956 168.00850 15230 ft 417 kts 321°
2026-05-08 00:38 8.07191 167.99022 14994 ft 407 kts 322°
2026-05-08 00:38 8.09357 167.97251 14769 ft 394 kts 321°
2026-05-08 00:38 8.11459 167.95530 14535 ft 384 kts 321°
2026-05-08 00:39 8.13503 167.93854 14310 ft 374 kts 322°
2026-05-08 00:39 8.15557 167.92173 13913 ft 382 kts 321°
2026-05-08 00:39 8.17622 167.90487 13277 ft 382 kts 321°
2026-05-08 00:39 8.19686 167.88799 12666 ft 381 kts 321°
2026-05-08 00:40 8.21699 167.87151 12143 ft 362 kts 321°
2026-05-08 00:40 8.23559 167.85623 11982 ft 336 kts 321°
2026-05-08 00:40 8.25301 167.84188 11907 ft 311 kts 321°
2026-05-08 00:40 8.26927 167.82848 11702 ft 294 kts 321°
2026-05-08 00:41 8.28476 167.81575 11462 ft 280 kts 322°
2026-05-08 00:41 8.29976 167.80345 11226 ft 277 kts 322°
2026-05-08 00:41 8.31462 167.79124 10992 ft 274 kts 322°
2026-05-08 00:41 8.32937 167.77916 10760 ft 271 kts 322°
2026-05-08 00:42 8.34393 167.76723 10523 ft 268 kts 322°
2026-05-08 00:42 8.35832 167.75546 10293 ft 265 kts 322°
2026-05-08 00:42 8.37288 167.74354 10063 ft 275 kts 323°
2026-05-08 00:42 8.38793 167.73121 9832 ft 280 kts 323°
2026-05-08 00:43 8.40301 167.71883 9593 ft 279 kts 323°
2026-05-08 00:43 8.41793 167.70657 9341 ft 275 kts 323°
2026-05-08 00:43 8.43273 167.69440 9092 ft 275 kts 323°
2026-05-08 00:43 8.44754 167.68222 8820 ft 275 kts 323°
2026-05-08 00:44 8.46240 167.67000 8452 ft 276 kts 323°
2026-05-08 00:44 8.47726 167.65778 8092 ft 276 kts 323°
2026-05-08 00:44 8.49209 167.64559 7729 ft 275 kts 324°
2026-05-08 00:44 8.50693 167.63339 7376 ft 275 kts 324°
2026-05-08 00:45 8.52175 167.62123 7028 ft 274 kts 323°
2026-05-08 00:45 8.53657 167.60909 6772 ft 274 kts 324°
2026-05-08 00:45 8.55136 167.59694 6335 ft 274 kts 324°
2026-05-08 00:45 8.56613 167.58480 5992 ft 273 kts 324°
2026-05-08 00:46 8.58105 167.57327 5698 ft 267 kts 333°
2026-05-08 00:46 8.59776 167.56623 5454 ft 256 kts 348°
2026-05-08 00:46 8.61460 167.56100 5209 ft 251 kts 348°
2026-05-08 00:46 8.63113 167.55580 4976 ft 247 kts 347°
2026-05-08 00:47 8.64592 167.54678 4734 ft 254 kts 316°
2026-05-08 00:47 8.65386 167.53125 4530 ft 255 kts 280°
2026-05-08 00:47 8.65236 167.51391 4419 ft 246 kts 246°
2026-05-08 00:47 8.64536 167.49836 4290 ft 243 kts 246°
2026-05-08 00:48 8.63979 167.48227 4163 ft 242 kts 250°
2026-05-08 00:48 8.63335 167.46666 4043 ft 239 kts 237°
2026-05-08 00:48 8.62402 167.45296 3919 ft 237 kts 229°
2026-05-08 00:48 8.61393 167.43974 3754 ft 237 kts 228°
2026-05-08 00:49 8.60376 167.42665 3560 ft 237 kts 228°
2026-05-08 00:49 8.59357 167.41362 3363 ft 236 kts 227°
2026-05-08 00:49 8.58339 167.40062 3175 ft 236 kts 228°
2026-05-08 00:49 8.57322 167.38764 3033 ft 236 kts 230°
2026-05-08 00:50 8.56669 167.37249 2959 ft 239 kts 264°
2026-05-08 00:50 8.56905 167.35618 2980 ft 235 kts 299°
2026-05-08 00:50 8.57927 167.34400 2949 ft 224 kts 335°
2026-05-08 00:50 8.59347 167.33957 2934 ft 211 kts
2026-05-08 00:51 8.60754 167.34165 2903 ft 201 kts 29°
2026-05-08 00:51 8.61841 167.34954 2877 ft 187 kts 55°
2026-05-08 00:51 8.62407 167.36086 2855 ft 180 kts 78°
2026-05-08 00:51 8.62660 167.37318 2867 ft 178 kts 79°
2026-05-08 00:52 8.62915 167.38541 2864 ft 177 kts 79°
2026-05-08 00:52 8.63173 167.39759 2866 ft 178 kts 79°
2026-05-08 00:52 8.63345 167.40570 2867 ft 178 kts 79°
2026-05-08 00:52 8.63603 167.41795 2868 ft 178 kts 79°
2026-05-08 00:53 8.63859 167.43020 2871 ft 178 kts 79°
2026-05-08 00:53 8.64196 167.44630 2872 ft 178 kts 79°
2026-05-08 00:53 8.64369 167.45458 2873 ft 179 kts 79°
2026-05-08 00:53 8.64708 167.47075 2883 ft 173 kts 78°
2026-05-08 00:54 8.64954 167.48251 2899 ft 170 kts 79°
2026-05-08 00:54 8.65119 167.49032 2895 ft 167 kts 79°
2026-05-08 00:54 8.65358 167.50168 2893 ft 165 kts 78°
2026-05-08 00:54 8.65594 167.51301 2892 ft 165 kts 79°
2026-05-08 00:55 8.65829 167.52432 2894 ft 165 kts 78°
2026-05-08 00:55 8.66066 167.53575 2897 ft 167 kts 79°
2026-05-08 00:55 8.66314 167.54721 2897 ft 167 kts 76°
2026-05-08 00:55 8.66664 167.55841 2899 ft 168 kts 74°
2026-05-08 00:56 8.67009 167.56952 2900 ft 167 kts 74°
2026-05-08 00:56 8.67354 167.58069 2902 ft 166 kts 73°
2026-05-08 00:56 8.67698 167.59189 2714 ft 165 kts 73°
2026-05-08 00:56 8.68031 167.60268 2496 ft 158 kts 73°
2026-05-08 00:57 8.68356 167.61324 2283 ft 157 kts 74°
2026-05-08 00:57 8.68675 167.62357 2072 ft 149 kts 74°
2026-05-08 00:57 8.68979 167.63341 1861 ft 146 kts 74°
2026-05-08 00:57 8.69280 167.64311 1678 ft 144 kts 73°
2026-05-08 00:58 8.69577 167.65279 1474 ft 143 kts 72°
2026-05-08 00:58 8.69870 167.66236 1283 ft 142 kts 72°
2026-05-08 00:58 8.70167 167.67193 1088 ft 142 kts 72°
2026-05-08 00:58 8.70454 167.68116 919 ft 132 kts 72°
2026-05-08 00:59 8.70711 167.68952 744 ft 119 kts 72°
2026-05-08 00:59 8.70956 167.69748 584 ft 118 kts 74°
2026-05-08 00:59 8.71199 167.70538 379 ft 119 kts 75°
2026-05-08 00:59 8.71440 167.71327 260 ft 117 kts 74°
2026-05-08 01:00 8.71682 167.72109 99 ft 117 kts 73°
2026-05-08 01:00 8.71931 167.72882 16 ft 112 kts 73°
2026-05-08 01:00 8.72108 167.73456 13 ft 46 kts 72°
2026-05-08 01:00 8.72162 167.73632 11 ft 21 kts 73°
2026-05-08 01:01 8.72201 167.73767 11 ft 19 kts 73°
2026-05-08 01:01 8.72235 167.73882 10 ft 11 kts 72°
2026-05-08 01:01 8.72260 167.73948 11 ft 10 kts 59°
2026-05-08 01:01 8.72317 167.73976 10 ft 7 kts
2026-05-08 01:02 8.72364 167.73965 10 ft 7 kts 342°
2026-05-08 01:02 8.72404 167.73952 10 ft 6 kts 341°
2026-05-08 01:02 8.72441 167.73940 10 ft 5 kts 344°
2026-05-08 01:02 8.72480 167.73930 10 ft 6 kts 346°
2026-05-08 01:03 8.72520 167.73920 10 ft 6 kts 346°
2026-05-08 01:03 8.72556 167.73910 10 ft 5 kts 344°
2026-05-08 01:03 8.72588 167.73897 10 ft 5 kts 333°
2026-05-08 01:03 8.72595 167.73893 10 ft 0 kts 332°